Find Starlink 5885

NORAD ID: 56352 Int'l Des: 2023-058 Owner: SPXS Country: US Constellation: starlink operational
LEOCIRCULARRETROGRADESSO

現在のビュー

3D地球を読み込み中...

Starlink 5885について

説明を読み込み中...

次回通過

Passes for default location (London). Set your location on the main map for personalized predictions.

高度履歴

Loading altitude history...

軌道要素

1 56352U 23058AM 26151.50844947 .00029969 00000-0 20809-2 0 9991
2 56352 97.4210 151.2020 0002318 112.1442 248.0032 15.05494549170582
Epoch: May 31, 2026 • Age: 10 hours

現在のステータス

高度 561.9 km
速度 7.59 km/s
衛星直下点 81.53°N, 130.6°W
打ち上げ日 Apr 27, 2023
運用期間 3 years
タイプ internet

技術仕様

分類 Payload
質量 300.00 kg
乾燥質量 260.00 kg
総質量 300.00 kg
長さ 0.20 m
直径 2.80 m
スパン 9.00 m
形状 Box + pan
製造者 SPXS
バスタイプ Starlink
フェーズステータス In Orbit
所有者/国 SPXS/US

Most Searched